Location: Austin
(30.3000°N, 97.7500°W)
Time: 03:24:21
(UTC-05:00)

Cosmos 2123 Rocket - Pass Details

Date: 18 March 2023
Orbit: 962 x 990 km, 82.9° (Epoch: 01 April)

Event Time Altitude Azimuth Distance (km) Brightness Sun altitude
Rises 21:24:55 0° 182° (S) 3,654 6.9 -23.0°
Reaches altitude 10° 21:27:24 10° 181° (S) 2,713 6.2 -23.5°
Maximum altitude 21:33:37 83° 94° (E) 991 3.9 -24.9°
Drops below altitude 10° 21:39:56 10° 7° (N) 2,746 6.4 -26.2°
Sets 21:42:28 0° 7° (N) 3,700 7.1 -26.7°
